UAE8UW KJFK-OMDB

Flight info

Callsign UAE8UW
Flight time N/A
Altitude 31000
Route BETTE DCT ACK DCT KANNI N97B SUPRY/M083F310 DCT 46N050W 48N040W 50N030W 52N020W DCT LIMRI/N0482F310 DCT XETBO/M083F330 DCT LULOX/N0478F330 DCT LIZAD DCT JSY DCT ARSUK/N0477F350 DCT RESMI UN491 POGZI DCT GELTA DCT LUVAL DCT SHARA DCT DEVDI DCT RIPUS DCT RESIA DCT VIC DCT LAPAB DCT LABIN DCT PINDO DCT AKINA DCT VANZA DCT LAKTO L324 GENIV L550 DATOK/N0478F370 L550 KARIK B411 DEESA Y415 NIMAR G662 KSA M321 RESAL T533 RAPMA DCT KUVSO DCT KATIT DCT PEKEM M628 RIGIL G783 ELUDA/N0474F350 G783 ASPED Q308 KIPOK Q568 IMPED
Aircraft B77W/H-SDE2E3FGHIJ1J3J4J5M1P2RWXY/LB1D1

Departure

Time 2026-05-05 04:01
Airport John F. Kennedy International Airport (KJFK)

Arrival

Time N/A
Airport Dubai International Airport (OMDB)
Time Latitude Longitude Altitude Speed Heading
2026-05-05 03:35 40.64198 -73.77882 28 ft 0 kts 26°
2026-05-05 03:48 40.64195 -73.77884 27 ft 3 kts 26°
2026-05-05 03:49 40.64173 -73.77898 28 ft 2 kts 26°
2026-05-05 03:49 40.64153 -73.77913 28 ft 4 kts 39°
2026-05-05 03:49 40.64135 -73.77938 28 ft 4 kts 59°
2026-05-05 03:49 40.64123 -73.77968 28 ft 2 kts 61°
2026-05-05 03:50 40.64110 -73.77993 28 ft 4 kts 37°
2026-05-05 03:50 40.64088 -73.78003 28 ft 4 kts 344°
2026-05-05 03:50 40.64064 -73.77988 28 ft 4 kts 331°
2026-05-05 03:50 40.64042 -73.77969 26 ft 4 kts 308°
2026-05-05 03:51 40.64030 -73.77941 28 ft 2 kts 290°
2026-05-05 03:51 40.64022 -73.77912 27 ft 4 kts 295°
2026-05-05 03:51 40.64008 -73.77884 28 ft 4 kts 326°
2026-05-05 03:51 40.63989 -73.77869 28 ft 4 kts 330°
2026-05-05 03:52 40.63965 -73.77852 27 ft 4 kts 330°
2026-05-05 03:52 40.63943 -73.77836 27 ft 4 kts 316°
2026-05-05 03:52 40.63931 -73.77808 27 ft 4 kts 271°
2026-05-05 03:52 40.63936 -73.77775 27 ft 4 kts 242°
2026-05-05 03:53 40.63948 -73.77745 27 ft 4 kts 241°
2026-05-05 03:53 40.63957 -73.77724 27 ft 0 kts 241°
2026-05-05 03:55 40.63957 -73.77725 27 ft 0 kts 241°
2026-05-05 03:55 40.63933 -73.77782 27 ft 7 kts 239°
2026-05-05 03:55 40.63886 -73.77784 27 ft 11 kts 158°
2026-05-05 03:55 40.63809 -73.77719 27 ft 14 kts 145°
2026-05-05 03:56 40.63723 -73.77662 27 ft 14 kts 166°
2026-05-05 03:56 40.63673 -73.77616 29 ft 7 kts 96°
2026-05-05 03:56 40.63718 -73.77543 28 ft 17 kts 34°
2026-05-05 03:56 40.63857 -73.77434 29 ft 27 kts 31°
2026-05-05 03:57 40.64016 -73.77310 26 ft 27 kts 31°
2026-05-05 03:57 40.64174 -73.77185 29 ft 27 kts 30°
2026-05-05 03:57 40.64332 -73.77063 27 ft 22 kts 31°
2026-05-05 03:57 40.64420 -73.77000 29 ft 14 kts 19°
2026-05-05 03:58 40.64515 -73.76977 26 ft 15 kts 20°
2026-05-05 03:58 40.64626 -73.76895 25 ft 23 kts 30°
2026-05-05 03:58 40.64763 -73.76787 26 ft 23 kts 31°
2026-05-05 03:58 40.64900 -73.76679 32 ft 23 kts 30°
2026-05-05 03:59 40.65029 -73.76580 31 ft 14 kts 31°
2026-05-05 03:59 40.65091 -73.76519 31 ft 9 kts 57°
2026-05-05 03:59 40.65082 -73.76434 27 ft 10 kts 115°
2026-05-05 03:59 40.65033 -73.76364 27 ft 11 kts 167°
2026-05-05 04:00 40.64958 -73.76406 27 ft 18 kts 211°
2026-05-05 04:00 40.64724 -73.76589 26 ft 73 kts 211°
2026-05-05 04:00 40.64066 -73.77102 29 ft 145 kts 210°
2026-05-05 04:00 40.63046 -73.77897 280 ft 180 kts 210°
2026-05-05 04:01 40.61951 -73.78758 1024 ft 187 kts 210°
2026-05-05 04:01 40.60800 -73.79667 1455 ft 202 kts 210°
2026-05-05 04:01 40.59539 -73.80661 1686 ft 220 kts 210°
2026-05-05 04:01 40.58168 -73.81739 1958 ft 239 kts 208°
2026-05-05 04:02 40.56685 -73.82858 2351 ft 253 kts 206°
2026-05-05 04:02 40.55131 -73.83939 3049 ft 249 kts 198°
2026-05-05 04:02 40.53476 -73.84169 3826 ft 239 kts 166°
2026-05-05 04:02 40.52029 -73.83115 4361 ft 251 kts 136°
2026-05-05 04:03 40.51088 -73.81142 5005 ft 261 kts 115°
2026-05-05 04:03 40.50710 -73.78756 5572 ft 276 kts 96°
2026-05-05 04:03 40.50834 -73.76184 6056 ft 287 kts 89°
2026-05-05 04:03 40.51055 -73.73560 6686 ft 291 kts 89°
2026-05-05 04:04 40.51271 -73.70907 7320 ft 293 kts 91°
2026-05-05 04:04 40.51303 -73.68185 7686 ft 304 kts 97°
2026-05-05 04:04 40.51230 -73.65374 8210 ft 312 kts 96°
2026-05-05 04:04 40.51218 -73.62530 8803 ft 319 kts 94°
2026-05-05 04:05 40.51290 -73.59598 9447 ft 324 kts 92°
2026-05-05 04:05 40.51430 -73.56623 10087 ft 329 kts 90°
2026-05-05 04:05 40.51619 -73.53576 10433 ft 345 kts 89°
2026-05-05 04:05 40.51849 -73.50344 10598 ft 366 kts 88°
2026-05-05 04:06 40.52115 -73.46927 10818 ft 384 kts 88°
2026-05-05 04:06 40.52406 -73.43390 11310 ft 394 kts 87°
2026-05-05 04:06 40.52711 -73.39779 11912 ft 401 kts 87°
2026-05-05 04:06 40.53020 -73.36124 12583 ft 404 kts 87°
2026-05-05 04:07 40.53333 -73.32433 13273 ft 408 kts 86°
2026-05-05 04:07 40.53641 -73.28759 13947 ft 411 kts 86°
2026-05-05 04:07 40.53954 -73.25005 14593 ft 415 kts 86°
2026-05-05 04:07 40.54268 -73.21209 15208 ft 420 kts 86°
2026-05-05 04:08 40.54584 -73.17372 15812 ft 424 kts 86°
2026-05-05 04:08 40.54901 -73.13505 16439 ft 428 kts 86°
2026-05-05 04:08 40.55220 -73.09599 17058 ft 431 kts 86°
2026-05-05 04:08 40.55539 -73.05666 17637 ft 435 kts 86°
2026-05-05 04:09 40.55953 -73.01706 18186 ft 440 kts 81°
2026-05-05 04:09 40.56689 -72.97776 18754 ft 444 kts 73°
2026-05-05 04:09 40.57682 -72.93923 19355 ft 447 kts 72°
2026-05-05 04:09 40.58686 -72.90109 19922 ft 449 kts 71°
2026-05-05 04:10 40.59711 -72.86212 20474 ft 452 kts 71°
2026-05-05 04:10 40.60735 -72.82294 21009 ft 454 kts 71°
2026-05-05 04:10 40.61757 -72.78344 21533 ft 457 kts 71°
2026-05-05 04:10 40.62777 -72.74374 22055 ft 459 kts 71°
2026-05-05 04:11 40.63799 -72.70374 22556 ft 462 kts 71°
2026-05-05 04:11 40.64823 -72.66354 23044 ft 464 kts 71°
2026-05-05 04:11 40.65849 -72.62314 23508 ft 467 kts 71°
2026-05-05 04:11 40.66865 -72.58301 23952 ft 469 kts 71°
2026-05-05 04:12 40.67898 -72.54216 24409 ft 471 kts 71°
2026-05-05 04:12 40.68936 -72.50107 24838 ft 474 kts 71°
2026-05-05 04:12 40.69979 -72.45973 25237 ft 477 kts 71°
2026-05-05 04:12 40.71028 -72.41809 25612 ft 480 kts 71°
2026-05-05 04:13 40.72078 -72.37629 26016 ft 482 kts 71°
2026-05-05 04:13 40.73134 -72.33416 26388 ft 485 kts 71°
2026-05-05 04:13 40.74194 -72.29187 26771 ft 487 kts 71°
2026-05-05 04:13 40.75257 -72.24938 27121 ft 489 kts 70°
2026-05-05 04:14 40.76323 -72.20669 27440 ft 492 kts 70°
2026-05-05 04:14 40.77380 -72.16431 27776 ft 494 kts 70°
2026-05-05 04:14 40.78453 -72.12113 28104 ft 496 kts 70°
2026-05-05 04:14 40.79530 -72.07776 28419 ft 498 kts 70°
2026-05-05 04:15 40.80608 -72.03421 28714 ft 500 kts 70°
2026-05-05 04:15 40.81690 -71.99045 28971 ft 503 kts 70°
2026-05-05 04:15 40.82777 -71.94647 29225 ft 505 kts 70°
2026-05-05 04:15 40.83865 -71.90232 29493 ft 506 kts 70°
2026-05-05 04:16 40.84955 -71.85801 29762 ft 508 kts 70°
2026-05-05 04:16 40.86027 -71.81432 30060 ft 507 kts 70°
2026-05-05 04:16 40.87112 -71.77000 30417 ft 506 kts 70°
2026-05-05 04:16 40.88193 -71.72577 30713 ft 506 kts 70°
2026-05-05 04:17 40.89275 -71.68145 30944 ft 508 kts 70°
2026-05-05 04:17 40.90358 -71.63701 31185 ft 508 kts 70°
2026-05-05 04:17 40.92534 -71.54745 31280 ft 513 kts 70°
2026-05-05 04:18 40.94697 -71.45803 31287 ft 508 kts 70°
2026-05-05 04:18 40.96830 -71.36954 31300 ft 508 kts 70°
2026-05-05 04:19 40.98971 -71.28044 31292 ft 509 kts 70°
2026-05-05 04:19 41.01108 -71.19111 31296 ft 509 kts 70°
2026-05-05 04:20 41.03241 -71.10161 31308 ft 510 kts 70°
2026-05-05 04:20 41.05355 -71.01253 31306 ft 511 kts 70°
2026-05-05 04:21 41.07478 -70.92274 31316 ft 511 kts 70°
2026-05-05 04:21 41.09594 -70.83286 31324 ft 511 kts 70°
2026-05-05 04:22 41.11704 -70.74293 31320 ft 511 kts 70°
2026-05-05 04:22 41.13806 -70.65293 31322 ft 511 kts 70°
2026-05-05 04:23 41.15889 -70.56345 31323 ft 511 kts 70°
2026-05-05 04:23 41.17978 -70.47335 31333 ft 511 kts 71°
2026-05-05 04:24 41.20058 -70.38330 31346 ft 510 kts 71°
2026-05-05 04:25 41.23162 -70.24812 31361 ft 510 kts 71°
2026-05-05 04:25 41.25208 -70.15858 31373 ft 510 kts 71°
2026-05-05 04:26 41.27285 -70.06845 31377 ft 509 kts 68°
2026-05-05 04:26 41.30153 -69.98299 31377 ft 504 kts 57°
2026-05-05 04:27 41.33864 -69.90410 31386 ft 503 kts 54°
2026-05-05 04:27 41.37583 -69.82582 31375 ft 504 kts 54°
2026-05-05 04:28 41.41295 -69.74663 31368 ft 504 kts 55°
2026-05-05 04:28 41.44988 -69.66713 31368 ft 505 kts 55°
2026-05-05 04:29 41.48674 -69.58744 31359 ft 505 kts 55°
2026-05-05 04:29 41.52355 -69.50768 31359 ft 505 kts 55°
2026-05-05 04:30 41.56007 -69.42838 31358 ft 505 kts 55°
2026-05-05 04:30 41.59678 -69.34850 31358 ft 504 kts 55°
2026-05-05 04:31 41.63341 -69.26855 31359 ft 504 kts 55°
2026-05-05 04:31 41.66996 -69.18857 31360 ft 504 kts 55°
2026-05-05 04:32 41.70620 -69.10907 31357 ft 504 kts 55°
2026-05-05 04:32 41.74264 -69.02889 31351 ft 504 kts 55°
2026-05-05 04:33 41.77285 -68.96226 31349 ft 504 kts 55°
2026-05-05 04:33 41.80919 -68.88192 31344 ft 504 kts 56°
2026-05-05 04:34 41.84544 -68.80154 31339 ft 504 kts 56°
2026-05-05 04:34 41.88749 -68.70808 31341 ft 503 kts 56°
2026-05-05 04:35 41.92361 -68.62756 31340 ft 503 kts 56°
2026-05-05 04:35 41.95356 -68.56064 31341 ft 503 kts 56°
2026-05-05 04:36 41.98952 -68.48006 31340 ft 503 kts 56°
2026-05-05 04:36 42.03123 -68.38634 31341 ft 502 kts 56°
2026-05-05 04:37 42.06098 -68.31932 31343 ft 502 kts 56°
2026-05-05 04:37 42.09670 -68.23866 31349 ft 502 kts 56°
2026-05-05 04:38 42.13235 -68.15787 31350 ft 502 kts 56°
2026-05-05 04:38 42.16795 -68.07701 31357 ft 502 kts 56°
2026-05-05 04:39 42.20325 -67.99664 31360 ft 502 kts 56°
2026-05-05 04:39 42.23875 -67.91558 31352 ft 502 kts 57°
2026-05-05 04:40 42.27424 -67.83433 31351 ft 503 kts 57°
2026-05-05 04:40 42.30975 -67.75279 31350 ft 504 kts 57°
2026-05-05 04:41 42.34526 -67.67104 31352 ft 505 kts 57°
2026-05-05 04:41 42.38056 -67.58957 31350 ft 506 kts 57°
2026-05-05 04:42 42.41604 -67.50741 31354 ft 506 kts 57°
2026-05-05 04:42 42.45147 -67.42516 31360 ft 506 kts 57°
2026-05-05 04:43 42.48684 -67.34279 31356 ft 506 kts 57°
2026-05-05 04:43 42.52193 -67.26088 31361 ft 506 kts 57°
2026-05-05 04:44 42.55718 -67.17835 31359 ft 506 kts 57°
2026-05-05 04:44 42.59237 -67.09571 31364 ft 506 kts 57°
2026-05-05 04:45 42.62728 -67.01275 31363 ft 507 kts 60°
2026-05-05 04:45 42.65453 -66.92425 31373 ft 509 kts 68°
2026-05-05 04:46 42.67794 -66.83415 31368 ft 510 kts 69°
2026-05-05 04:46 42.70160 -66.74336 31371 ft 510 kts 68°
2026-05-05 04:47 42.72552 -66.65262 31379 ft 510 kts 68°
2026-05-05 04:47 42.74952 -66.56185 31378 ft 510 kts 68°
2026-05-05 04:48 42.77345 -66.47106 31377 ft 510 kts 68°
2026-05-05 04:48 42.79711 -66.38086 31376 ft 509 kts 68°
2026-05-05 04:49 42.82084 -66.28999 31381 ft 509 kts 68°
2026-05-05 04:49 42.84449 -66.19907 31388 ft 509 kts 68°
2026-05-05 04:50 42.86809 -66.10800 31387 ft 510 kts 68°
2026-05-05 04:50 42.89147 -66.01746 31389 ft 510 kts 68°
2026-05-05 04:51 42.91493 -65.92622 31399 ft 510 kts 68°
2026-05-05 04:51 42.93834 -65.83490 31393 ft 510 kts 68°
2026-05-05 04:52 42.96167 -65.74349 31397 ft 510 kts 68°
2026-05-05 04:52 42.98490 -65.65207 31394 ft 510 kts 68°
2026-05-05 04:53 43.00792 -65.56116 31396 ft 510 kts 68°
2026-05-05 04:53 43.03104 -65.46957 31396 ft 510 kts 68°
2026-05-05 04:54 43.05407 -65.37790 31395 ft 510 kts 68°
2026-05-05 04:54 43.07707 -65.28603 31397 ft 510 kts 69°
2026-05-05 04:55 43.09985 -65.19472 31396 ft 511 kts 69°
2026-05-05 04:55 43.12269 -65.10268 31395 ft 511 kts 69°
2026-05-05 04:56 43.14547 -65.01057 31395 ft 511 kts 69°
2026-05-05 04:56 43.16821 -64.91827 31395 ft 511 kts 69°
2026-05-05 04:57 43.19072 -64.82657 31396 ft 511 kts 69°
2026-05-05 04:57 43.21331 -64.73410 31393 ft 512 kts 69°
2026-05-05 04:58 43.23582 -64.64161 31397 ft 512 kts 69°
2026-05-05 04:58 43.25829 -64.54895 31395 ft 512 kts 69°
2026-05-05 04:59 43.28071 -64.45610 31397 ft 512 kts 69°
2026-05-05 04:59 43.30290 -64.36382 31395 ft 513 kts 69°
2026-05-05 05:00 43.32520 -64.27074 31382 ft 514 kts 69°
2026-05-05 05:00 43.34744 -64.17740 31375 ft 514 kts 69°
2026-05-05 05:01 43.36965 -64.08390 31378 ft 515 kts 69°
2026-05-05 05:01 43.39180 -63.99026 31378 ft 515 kts 69°
2026-05-05 05:02 43.41374 -63.89710 31378 ft 516 kts 69°
2026-05-05 05:02 43.43576 -63.80319 31377 ft 516 kts 69°
2026-05-05 05:03 43.45774 -63.70913 31378 ft 516 kts 69°
2026-05-05 05:03 43.47962 -63.61504 31378 ft 516 kts 69°
2026-05-05 05:04 43.50127 -63.52152 31384 ft 516 kts 69°
2026-05-05 05:04 43.52299 -63.42733 31385 ft 516 kts 69°
2026-05-05 05:05 43.54461 -63.33316 31376 ft 515 kts 69°
2026-05-05 05:05 43.56613 -63.23903 31376 ft 514 kts 69°
2026-05-05 05:06 43.58753 -63.14498 31378 ft 514 kts 69°
2026-05-05 05:06 43.60868 -63.05163 31381 ft 513 kts 69°
2026-05-05 05:07 43.62988 -62.95774 31385 ft 512 kts 69°
2026-05-05 05:07 43.65097 -62.86394 31386 ft 511 kts 69°
2026-05-05 05:08 43.67196 -62.77014 31388 ft 511 kts 69°
2026-05-05 05:08 43.69285 -62.67636 31386 ft 511 kts 69°
2026-05-05 05:09 43.71354 -62.58307 31388 ft 511 kts 69°
2026-05-05 05:09 43.73428 -62.48911 31385 ft 512 kts 69°
2026-05-05 05:10 43.75498 -62.39500 31387 ft 512 kts 69°
2026-05-05 05:10 43.77563 -62.30061 31387 ft 513 kts 69°
2026-05-05 05:11 43.79609 -62.20670 31387 ft 513 kts 69°
2026-05-05 05:11 43.81662 -62.11205 31387 ft 514 kts 69°
2026-05-05 05:12 43.83710 -62.01722 31386 ft 514 kts 69°
2026-05-05 05:12 43.85751 -61.92232 31386 ft 514 kts 69°
2026-05-05 05:13 43.87771 -61.82797 31399 ft 514 kts 69°
2026-05-05 05:13 43.89791 -61.73312 31449 ft 513 kts 69°
2026-05-05 05:14 43.91802 -61.63819 31453 ft 513 kts 69°
2026-05-05 05:14 43.93805 -61.54332 31460 ft 513 kts 70°
2026-05-05 05:15 43.95789 -61.44896 31452 ft 513 kts 70°
2026-05-05 05:15 43.97776 -61.35395 31453 ft 512 kts 70°
2026-05-05 05:16 43.99754 -61.25894 31454 ft 512 kts 70°
2026-05-05 05:16 44.01721 -61.16401 31449 ft 512 kts 70°
2026-05-05 05:17 44.03683 -61.06892 31463 ft 513 kts 70°
2026-05-05 05:17 44.05629 -60.97417 31473 ft 514 kts 70°
2026-05-05 05:18 44.07583 -60.87857 31473 ft 514 kts 70°
2026-05-05 05:18 44.09529 -60.78280 31478 ft 514 kts 70°
2026-05-05 05:19 44.11469 -60.68701 31477 ft 514 kts 70°
2026-05-05 05:19 44.13384 -60.59190 31478 ft 514 kts 70°
2026-05-05 05:20 44.15302 -60.49621 31483 ft 512 kts 70°
2026-05-05 05:20 44.17206 -60.40077 31486 ft 511 kts 70°
2026-05-05 05:21 44.19099 -60.30540 31488 ft 510 kts 70°
2026-05-05 05:21 44.20982 -60.21013 31486 ft 509 kts 70°
2026-05-05 05:22 44.22842 -60.11557 31486 ft 509 kts 70°
2026-05-05 05:22 44.24703 -60.02042 31487 ft 509 kts 70°
2026-05-05 05:23 44.26559 -59.92518 31494 ft 509 kts 70°
2026-05-05 05:23 44.28406 -59.82989 31494 ft 509 kts 70°
2026-05-05 05:24 44.30233 -59.73513 31485 ft 509 kts 70°
2026-05-05 05:24 44.32068 -59.63953 31489 ft 510 kts 70°
2026-05-05 05:25 44.33897 -59.54372 31486 ft 511 kts 70°
2026-05-05 05:25 44.35720 -59.44774 31489 ft 511 kts 70°